Time,TemperatureF,DewpointF,PressureIn,WindDirection,WindDirectionDegrees,WindSpeedMPH,WindSpeedGustMPH,Humidity,HourlyPrecipIn,Conditions,Clouds,dailyrainin,SoftwareType,DateUTC
2013-05-06 00:10:00,52.3,47.6,30.01,North,0,0.0,-999.0,84,-99.99,,,0.00,Acu-Link.com,2013-05-06 04:10:00,
2013-05-06 00:25:00,51.3,46.6,30.00,East,90,0.0,-999.0,84,-99.99,,,0.00,Acu-Link.com,2013-05-06 04:25:00,
2013-05-06 00:40:00,50.7,47.0,30.00,East,90,0.0,-999.0,87,-99.99,,,0.00,Acu-Link.com,2013-05-06 04:40:00,
2013-05-06 00:56:00,50.0,46.3,30.00,East,90,0.0,-999.0,87,-99.99,,,0.00,Acu-Link.com,2013-05-06 04:56:00,
2013-05-06 01:11:00,49.5,46.1,30.00,East,90,0.0,-999.0,88,-99.99,,,0.00,Acu-Link.com,2013-05-06 05:11:00,
2013-05-06 01:26:00,49.3,46.5,30.00,WNW,292,0.0,-999.0,90,-99.99,,,0.00,Acu-Link.com,2013-05-06 05:26:00,
2013-05-06 01:42:00,49.5,47.6,30.01,ENE,67,0.0,-999.0,93,-99.99,,,0.00,Acu-Link.com,2013-05-06 05:42:00,
2013-05-06 01:57:00,49.3,47.4,30.00,SSE,157,0.0,-999.0,93,-99.99,,,0.00,Acu-Link.com,2013-05-06 05:57:00,
2013-05-06 02:12:00,48.6,46.4,30.00,South,180,0.0,-999.0,92,-99.99,,,0.00,Acu-Link.com,2013-05-06 06:12:00,
2013-05-06 02:28:00,48.2,46.3,30.01,WNW,292,0.0,-999.0,93,-99.99,,,0.00,Acu-Link.com,2013-05-06 06:28:00,
2013-05-06 02:43:00,47.8,45.9,30.01,NNE,22,0.0,-999.0,93,-99.99,,,0.00,Acu-Link.com,2013-05-06 06:43:00,
2013-05-06 02:58:00,47.5,45.9,30.01,NNE,22,0.0,-999.0,94,-99.99,,,0.00,Acu-Link.com,2013-05-06 06:58:00,
2013-05-06 03:14:00,46.9,45.3,30.01,NNE,22,0.0,-999.0,94,-99.99,,,0.00,Acu-Link.com,2013-05-06 07:14:00,
2013-05-06 03:29:00,46.8,45.2,30.01,NNE,22,0.0,-999.0,94,-99.99,,,0.00,Acu-Link.com,2013-05-06 07:29:00,
2013-05-06 03:44:00,46.0,44.4,30.01,NNE,22,0.0,-999.0,94,-99.99,,,0.00,Acu-Link.com,2013-05-06 07:44:00,
2013-05-06 03:59:00,46.0,44.1,30.02,North,0,0.0,-999.0,93,-99.99,,,0.00,Acu-Link.com,2013-05-06 07:59:00,
2013-05-06 04:14:00,45.7,43.5,30.02,North,0,0.0,-999.0,92,-99.99,,,0.00,Acu-Link.com,2013-05-06 08:14:00,
2013-05-06 04:45:00,45.0,43.1,30.02,North,0,0.0,-999.0,93,-99.99,,,0.00,Acu-Link.com,2013-05-06 08:45:00,
2013-05-06 05:00:00,44.6,42.7,30.02,North,0,0.0,-999.0,93,-99.99,,,0.00,Acu-Link.com,2013-05-06 09:00:00,
2013-05-06 05:15:00,44.6,43.0,30.03,North,0,0.0,-999.0,94,-99.99,,,0.00,Acu-Link.com,2013-05-06 09:15:00,
2013-05-06 05:30:00,43.9,42.3,30.03,North,0,0.0,-999.0,94,-99.99,,,0.00,Acu-Link.com,2013-05-06 09:30:00,
2013-05-06 05:46:00,43.9,42.3,30.03,North,0,0.0,-999.0,94,-99.99,,,0.00,Acu-Link.com,2013-05-06 09:46:00,
2013-05-06 06:01:00,43.7,42.6,30.03,North,0,0.0,-999.0,96,-99.99,,,0.00,Acu-Link.com,2013-05-06 10:01:00,
2013-05-06 06:16:00,43.5,42.4,30.04,North,0,0.0,-999.0,96,-99.99,,,0.00,Acu-Link.com,2013-05-06 10:16:00,
2013-05-06 06:31:00,43.3,42.0,30.04,North,0,0.0,-999.0,95,-99.99,,,0.00,Acu-Link.com,2013-05-06 10:31:00,
2013-05-06 06:47:00,43.5,42.2,30.05,North,0,0.0,-999.0,95,-99.99,,,0.00,Acu-Link.com,2013-05-06 10:47:00,
2013-05-06 07:02:00,44.4,43.1,30.05,North,0,0.0,-999.0,95,-99.99,,,0.00,Acu-Link.com,2013-05-06 11:02:00,
2013-05-06 07:17:00,46.4,45.0,30.06,North,0,0.0,-999.0,95,-99.99,,,0.00,Acu-Link.com,2013-05-06 11:17:00,
2013-05-06 07:33:00,49.3,47.9,30.06,North,0,0.0,-999.0,95,-99.99,,,0.00,Acu-Link.com,2013-05-06 11:33:00,
2013-05-06 07:48:00,52.2,49.4,30.07,North,0,0.0,-999.0,90,-99.99,,,0.00,Acu-Link.com,2013-05-06 11:48:00,
2013-05-06 08:03:00,53.4,46.4,30.06,NNE,22,0.0,-999.0,77,-99.99,,,0.00,Acu-Link.com,2013-05-06 12:03:00,
2013-05-06 08:19:00,55.8,44.6,30.07,NNE,22,1.7,-999.0,66,-99.99,,,0.00,Acu-Link.com,2013-05-06 12:19:00,
2013-05-06 08:34:00,58.6,44.3,30.06,West,270,0.0,-999.0,59,-99.99,,,0.00,Acu-Link.com,2013-05-06 12:34:00,
2013-05-06 08:49:00,63.5,45.6,30.06,West,270,1.1,-999.0,52,-99.99,,,0.00,Acu-Link.com,2013-05-06 12:49:00,
2013-05-06 09:04:00,67.3,46.9,30.06,SW,225,2.2,-999.0,48,-99.99,,,0.00,Acu-Link.com,2013-05-06 13:04:00,
2013-05-06 09:20:00,71.6,46.6,30.07,North,0,0.0,-999.0,41,-99.99,,,0.00,Acu-Link.com,2013-05-06 13:20:00,
2013-05-06 09:35:00,71.4,46.5,30.07,SSW,202,1.7,-999.0,41,-99.99,,,0.00,Acu-Link.com,2013-05-06 13:35:00,
2013-05-06 09:50:00,76.8,47.1,30.07,WNW,292,1.1,-999.0,35,-99.99,,,0.00,Acu-Link.com,2013-05-06 13:50:00,
2013-05-06 10:05:00,67.1,43.9,30.07,NNW,337,1.1,-999.0,43,-99.99,,,0.00,Acu-Link.com,2013-05-06 14:05:00,
2013-05-06 10:20:00,69.4,43.4,30.07,ESE,112,3.2,-999.0,39,-99.99,,,0.00,Acu-Link.com,2013-05-06 14:20:00,
2013-05-06 10:36:00,71.1,44.2,30.06,North,0,2.7,-999.0,38,-99.99,,,0.00,Acu-Link.com,2013-05-06 14:36:00,
2013-05-06 10:51:00,71.4,45.8,30.06,NW,315,1.1,-999.0,40,-99.99,,,0.00,Acu-Link.com,2013-05-06 14:51:00,
2013-05-06 11:06:00,71.4,47.1,30.05,NE,45,1.7,-999.0,42,-99.99,,,0.00,Acu-Link.com,2013-05-06 15:06:00,
2013-05-06 11:21:00,73.6,45.0,30.05,ENE,67,1.1,-999.0,36,-99.99,,,0.00,Acu-Link.com,2013-05-06 15:21:00,
2013-05-06 11:37:00,73.9,44.5,30.05,SSW,202,4.2,-999.0,35,-99.99,,,0.00,Acu-Link.com,2013-05-06 15:37:00,
2013-05-06 11:52:00,74.1,45.4,30.05,ENE,67,0.0,-999.0,36,-99.99,,,0.00,Acu-Link.com,2013-05-06 15:52:00,
2013-05-06 12:07:00,75.0,45.5,30.04,SSE,157,2.2,-999.0,35,-99.99,,,0.00,Acu-Link.com,2013-05-06 16:07:00,
2013-05-06 12:23:00,75.4,42.6,30.03,ENE,67,2.2,-999.0,31,-99.99,,,0.00,Acu-Link.com,2013-05-06 16:23:00,
2013-05-06 12:38:00,77.5,45.3,30.02,ESE,112,1.1,-999.0,32,-99.99,,,0.00,Acu-Link.com,2013-05-06 16:38:00,
2013-05-06 12:53:00,76.1,43.3,30.02,NE,45,2.7,-999.0,31,-99.99,,,0.00,Acu-Link.com,2013-05-06 16:53:00,
2013-05-06 13:08:00,76.8,42.1,30.01,NNE,22,1.1,-999.0,29,-99.99,,,0.00,Acu-Link.com,2013-05-06 17:08:00,
2013-05-06 13:24:00,75.6,40.2,30.01,SSW,202,2.7,-999.0,28,-99.99,,,0.01,Acu-Link.com,2013-05-06 17:24:00,
2013-05-06 13:39:00,76.3,41.7,29.99,SSE,157,1.1,-999.0,29,-99.99,,,0.01,Acu-Link.com,2013-05-06 17:39:00,
2013-05-06 13:54:00,76.6,41.9,29.98,East,90,1.7,-999.0,29,-99.99,,,0.05,Acu-Link.com,2013-05-06 17:54:00,
2013-05-06 14:10:00,78.1,36.1,29.99,WNW,292,3.7,-999.0,22,-99.99,,,0.05,Acu-Link.com,2013-05-06 18:10:00,
2013-05-06 14:25:00,79.3,37.1,29.99,NE,45,1.1,-999.0,22,-99.99,,,0.05,Acu-Link.com,2013-05-06 18:25:00,
2013-05-06 14:40:00,79.7,38.6,29.97,NNW,337,2.2,-999.0,23,-99.99,,,0.05,Acu-Link.com,2013-05-06 18:40:00,
2013-05-06 14:56:00,80.2,42.2,29.97,ENE,67,2.7,-999.0,26,-99.99,,,0.05,Acu-Link.com,2013-05-06 18:56:00,
2013-05-06 15:11:00,79.2,41.3,29.95,ESE,112,2.2,-999.0,26,-99.99,,,0.05,Acu-Link.com,2013-05-06 19:11:00,
2013-05-06 15:26:00,80.8,40.6,29.95,NNE,22,4.7,-999.0,24,-99.99,,,0.05,Acu-Link.com,2013-05-06 19:26:00,
2013-05-06 15:41:00,79.3,46.9,29.95,NNW,337,5.3,-999.0,32,-99.99,,,0.05,Acu-Link.com,2013-05-06 19:41:00,
2013-05-06 15:56:00,79.0,46.6,29.93,West,270,1.7,-999.0,32,-99.99,,,0.05,Acu-Link.com,2013-05-06 19:56:00,
2013-05-06 16:11:00,77.4,46.8,29.93,NNW,337,3.7,-999.0,34,-99.99,,,0.05,Acu-Link.com,2013-05-06 20:11:00,
2013-05-06 16:27:00,76.8,46.3,29.93,NNE,22,2.7,-999.0,34,-99.99,,,0.05,Acu-Link.com,2013-05-06 20:27:00,
2013-05-06 16:42:00,76.3,45.1,29.93,North,0,3.2,-999.0,33,-99.99,,,0.05,Acu-Link.com,2013-05-06 20:42:00,
2013-05-06 16:57:00,75.7,42.9,29.93,NNE,22,3.7,-999.0,31,-99.99,,,0.05,Acu-Link.com,2013-05-06 20:57:00,
2013-05-06 17:12:00,75.7,43.7,29.92,West,270,4.2,-999.0,32,-99.99,,,0.05,Acu-Link.com,2013-05-06 21:12:00,
2013-05-06 17:28:00,74.8,43.8,29.93,NW,315,7.8,-999.0,33,-99.99,,,0.05,Acu-Link.com,2013-05-06 21:28:00,
2013-05-06 17:43:00,75.7,44.5,29.92,NW,315,3.7,-999.0,33,-99.99,,,0.05,Acu-Link.com,2013-05-06 21:43:00,
2013-05-06 17:58:00,73.8,43.7,29.92,East,90,3.2,-999.0,34,-99.99,,,0.05,Acu-Link.com,2013-05-06 21:58:00,
2013-05-06 18:13:00,74.3,44.9,29.93,NW,315,2.7,-999.0,35,-99.99,,,0.05,Acu-Link.com,2013-05-06 22:13:00,
2013-05-06 18:28:00,73.8,44.4,29.92,WNW,292,3.2,-999.0,35,-99.99,,,0.05,Acu-Link.com,2013-05-06 22:28:00,
2013-05-06 18:44:00,72.7,41.9,29.92,ESE,112,2.2,-999.0,33,-99.99,,,0.05,Acu-Link.com,2013-05-06 22:44:00,
2013-05-06 18:59:00,71.8,41.9,29.92,West,270,2.2,-999.0,34,-99.99,,,0.05,Acu-Link.com,2013-05-06 22:59:00,
2013-05-06 19:14:00,70.9,44.0,29.92,SSW,202,2.2,-999.0,38,-99.99,,,0.05,Acu-Link.com,2013-05-06 23:14:00,
2013-05-06 19:30:00,69.3,43.9,29.93,NE,45,0.0,-999.0,40,-99.99,,,0.05,Acu-Link.com,2013-05-06 23:30:00,
2013-05-06 19:45:00,68.2,44.2,29.92,WNW,292,1.1,-999.0,42,-99.99,,,0.05,Acu-Link.com,2013-05-06 23:45:00,
2013-05-06 20:00:00,67.1,43.9,29.93,North,0,2.2,-999.0,43,-99.99,,,0.05,Acu-Link.com,2013-05-07 00:00:00,
2013-05-06 20:16:00,65.5,43.6,29.93,North,0,2.2,-999.0,45,-99.99,,,0.05,Acu-Link.com,2013-05-07 00:16:00,
2013-05-06 20:31:00,64.4,43.7,29.94,WNW,292,2.7,-999.0,47,-99.99,,,0.05,Acu-Link.com,2013-05-07 00:31:00,
2013-05-06 20:46:00,63.3,43.3,29.94,West,270,0.0,-999.0,48,-99.99,,,0.05,Acu-Link.com,2013-05-07 00:46:00,
2013-05-06 21:01:00,62.4,44.0,29.94,North,0,0.0,-999.0,51,-99.99,,,0.05,Acu-Link.com,2013-05-07 01:01:00,
2013-05-06 21:17:00,61.3,43.0,29.94,NNW,337,1.7,-999.0,51,-99.99,,,0.05,Acu-Link.com,2013-05-07 01:17:00,
2013-05-06 21:32:00,60.4,42.7,29.94,NNW,337,0.0,-999.0,52,-99.99,,,0.05,Acu-Link.com,2013-05-07 01:32:00,
2013-05-06 21:47:00,59.9,42.2,29.94,WNW,292,0.0,-999.0,52,-99.99,,,0.05,Acu-Link.com,2013-05-07 01:47:00,
2013-05-06 22:02:00,58.6,42.0,29.95,South,180,0.0,-999.0,54,-99.99,,,0.05,Acu-Link.com,2013-05-07 02:02:00,
2013-05-06 22:18:00,57.6,43.4,29.97,NNE,22,0.0,-999.0,59,-99.99,,,0.05,Acu-Link.com,2013-05-07 02:18:00,
2013-05-06 22:33:00,56.7,43.4,29.97,SE,135,0.0,-999.0,61,-99.99,,,0.05,Acu-Link.com,2013-05-07 02:33:00,
2013-05-06 22:49:00,55.6,43.6,29.96,NNE,22,0.0,-999.0,64,-99.99,,,0.05,Acu-Link.com,2013-05-07 02:49:00,
2013-05-06 23:04:00,54.7,43.2,29.96,SE,135,0.0,-999.0,65,-99.99,,,0.05,Acu-Link.com,2013-05-07 03:04:00,
2013-05-06 23:19:00,54.0,43.3,29.96,WNW,292,0.0,-999.0,67,-99.99,,,0.05,Acu-Link.com,2013-05-07 03:19:00,
2013-05-06 23:35:00,53.6,43.3,29.97,WNW,292,0.0,-999.0,68,-99.99,,,0.05,Acu-Link.com,2013-05-07 03:35:00,
2013-05-06 23:50:00,53.1,43.2,29.96,WNW,292,0.0,-999.0,69,-99.99,,,0.05,Acu-Link.com,2013-05-07 03:50:00,